User: anonymous   Login
Location: ????????
(54.8751°N, 38.5756°E)
Time: 16:02:06
(UTC+00:00)
Language:

Cosmos 1743 Rocket - Orbit

View from above orbital plane
View from above orbital plane
View from above satellite
View from above satellite

Ground track
Ground track

The orbit data is extracted from the following two-line orbital elements,

1 16720U 86034B   24170.85374970  .00000559  00000-0  63313-4 0  9993
2 16720  82.5539  15.0784 0018316 299.5588  71.0552 14.84530900 37532
Epoch (UTC): 18 June 2024 20:29:23
Eccentricity: 0.0018316
inclination: 82.5539°
perigee height: 602 km
apogee height: 628 km
right ascension of ascending node: 15.0784°
argument of perigee: 299.5588°
revolutions per day: 14.84530900
mean anomaly at epoch: 71.0552°
orbit number at epoch: 3753

The dashed part of the orbit path shows where the satellite is in the earth's shadow,  

DLR